Overview Statistics Trail Chart Weather Telemetry Raw packets
 

This is the latest recevied weather packets stored in our database for station/object K7FLA. If no packets are shown the sender has not sent any weather packets the latest 10 day(s).

<< 36 37 38 39 40 41 42 >>
Time Temp. Humidity Pressure Rain* Wind** Luminosity Snow
1788428174 15° C 57% 1096 hPa 0 mm - 0 W/m² -
1788427869 15.56° C 57% 1096.2 hPa 0 mm - 0 W/m² -
1788427569 15.56° C 55% 1096.2 hPa 0 mm - 0 W/m² -
1788427263 15.56° C 54% 1096.2 hPa 0 mm - 0 W/m² -
1788426967 15.56° C 54% 1096.2 hPa 0 mm - 0 W/m² -
1788426656 15.56° C 54% 1096.2 hPa 0 mm - 0 W/m² -
1788426353 15.56° C 54% 1096.3 hPa 0 mm - 0 W/m² -
1788426051 15.56° C 55% 1096.3 hPa 0 mm - 0 W/m² -
1788425749 15.56° C 55% 1096.3 hPa 0 mm - 0 W/m² -
1788425445 15.56° C 54% 1096.5 hPa 0 mm - 0 W/m² -
1788425143 15.56° C 54% 1096.4 hPa 0 mm - 0 W/m² -
1788424838 15.56° C 56% 1096.5 hPa 0 mm - 0 W/m² -
1788424535 15.56° C 52% 1096.6 hPa 0 mm - 0 W/m² -
1788424234 16.11° C 52% 1096.6 hPa 0 mm - 0 W/m² -
1788423928 16.11° C 51% 1096.7 hPa 0 mm - 0 W/m² -
1788423624 16.11° C 52% 1096.5 hPa 0 mm - 0 W/m² -
1788423319 16.11° C 48% 1096.6 hPa 0 mm - 0 W/m² -
1788423015 16.67° C 46% 1096.6 hPa 0 mm - 0 W/m² -
1788422711 16.67° C 46% 1096.6 hPa 0 mm - 0 W/m² -
1788422407 16.67° C 45% 1096.7 hPa 0 mm - 0 W/m² -
1788422101 16.67° C 45% 1096.7 hPa 0 mm - 0 W/m² -
1788421797 16.67° C 44% 1096.8 hPa 0 mm - 0 W/m² -
1788421495 16.11° C 44% 1096.6 hPa 0 mm - 0 W/m² -
1788421191 16.67° C 43% 1096.7 hPa 0 mm - 0 W/m² -
1788420886 16.67° C 43% 1096.7 hPa 0 mm - 0 W/m² -

* Rain latest hour (hover to see other rain measurements)
** Current wind speed in m/s (hover to see current wind gust speed)